Time,TemperatureF,DewpointF,PressureIn,WindDirection,WindDirectionDegrees,WindSpeedMPH,WindSpeedGustMPH,Humidity,HourlyPrecipIn,Conditions,Clouds,dailyrainin,SoftwareType,DateUTC
2013-04-29 00:02:00,45.0,34.0,-100.00,WNW,300,4.0,7.0,65,0.00,,,0.00,,2013-04-29 05:02:00,
2013-04-29 00:12:00,44.0,34.0,-100.00,NW,305,4.0,7.0,66,0.00,,,0.00,,2013-04-29 05:12:00,
2013-04-29 00:22:00,44.0,34.0,-100.00,WNW,300,4.0,7.0,66,0.00,,,0.00,,2013-04-29 05:22:00,
2013-04-29 00:32:00,44.0,34.0,-100.00,NW,310,6.0,9.0,66,0.00,,,0.00,,2013-04-29 05:32:00,
2013-04-29 00:42:00,44.0,34.0,-100.00,NW,305,6.0,9.0,65,0.00,,,0.00,,2013-04-29 05:42:00,
2013-04-29 00:52:00,44.0,34.0,-100.00,NW,310,5.0,7.0,65,0.00,,,0.00,,2013-04-29 05:52:00,
2013-04-29 01:02:00,43.0,32.0,-100.00,NW,310,6.0,10.0,65,0.00,,,0.00,,2013-04-29 06:02:00,
2013-04-29 01:11:00,43.0,32.0,-100.00,NW,315,6.0,10.0,65,0.00,,,0.00,,2013-04-29 06:11:00,
2013-04-29 01:21:00,42.0,32.0,-100.00,WNW,300,6.0,7.0,66,0.00,,,0.00,,2013-04-29 06:21:00,
2013-04-29 01:32:00,42.0,32.0,-100.00,NW,310,6.0,9.0,66,0.00,,,0.00,,2013-04-29 06:32:00,
2013-04-29 01:42:00,42.0,32.0,-100.00,NW,320,4.0,9.0,67,0.00,,,0.00,,2013-04-29 06:42:00,
2013-04-29 01:51:00,41.0,32.0,-100.00,NW,310,4.0,8.0,67,0.00,,,0.00,,2013-04-29 06:51:00,
2013-04-29 02:01:00,41.0,30.0,-100.00,NNW,345,2.0,7.0,68,0.00,,,0.00,,2013-04-29 07:01:00,
2013-04-29 02:11:00,40.0,30.0,-100.00,NW,310,2.0,5.0,69,0.00,,,0.00,,2013-04-29 07:11:00,
2013-04-29 02:21:00,39.0,30.0,-100.00,NW,305,2.0,7.0,70,0.00,,,0.00,,2013-04-29 07:21:00,
2013-04-29 02:32:00,38.0,30.0,-100.00,NW,325,2.0,5.0,72,0.00,,,0.00,,2013-04-29 07:32:00,
2013-04-29 02:41:00,37.0,30.0,-100.00,NW,310,3.0,4.0,73,0.00,,,0.00,,2013-04-29 07:41:00,
2013-04-29 02:52:00,37.0,30.0,-100.00,NNW,330,2.0,5.0,75,0.00,,,0.00,,2013-04-29 07:52:00,
2013-04-29 03:02:00,37.0,30.0,-100.00,NNW,345,1.0,4.0,75,0.00,,,0.00,,2013-04-29 08:02:00,
2013-04-29 03:11:00,35.0,28.0,-100.00,NNW,340,1.0,2.0,76,0.00,,,0.00,,2013-04-29 08:11:00,
2013-04-29 03:21:00,35.0,28.0,-100.00,NNW,335,1.0,4.0,79,0.00,,,0.00,,2013-04-29 08:21:00,
2013-04-29 03:31:00,35.0,28.0,-100.00,NW,315,2.0,3.0,80,0.00,,,0.00,,2013-04-29 08:31:00,
2013-04-29 03:42:00,34.0,28.0,-100.00,West,260,0.0,2.0,82,0.00,,,0.00,,2013-04-29 08:42:00,
2013-04-29 03:51:00,33.0,28.0,-100.00,North,0,0.0,1.0,84,0.00,,,0.00,,2013-04-29 08:51:00,
2013-04-29 04:01:00,33.0,30.0,-100.00,WSW,255,0.0,1.0,86,0.00,,,0.00,,2013-04-29 09:01:00,
2013-04-29 04:12:00,33.0,30.0,-100.00,West,275,0.0,1.0,87,0.00,,,0.00,,2013-04-29 09:12:00,
2013-04-29 04:21:00,33.0,30.0,-100.00,SW,235,0.0,0.0,88,0.00,,,0.00,,2013-04-29 09:21:00,
2013-04-29 04:32:00,32.0,28.0,-100.00,SW,235,0.0,0.0,90,0.00,,,0.00,,2013-04-29 09:32:00,
2013-04-29 04:42:00,31.0,28.0,-100.00,SW,235,0.0,1.0,91,0.00,,,0.00,,2013-04-29 09:42:00,
2013-04-29 04:52:00,31.0,30.0,-100.00,North,10,1.0,1.0,92,0.00,,,0.00,,2013-04-29 09:52:00,
2013-04-29 05:02:00,32.0,30.0,-100.00,NNE,25,1.0,2.0,93,0.00,,,0.00,,2013-04-29 10:02:00,
2013-04-29 05:12:00,31.0,28.0,-100.00,NNE,15,0.0,1.0,93,0.00,,,0.00,,2013-04-29 10:12:00,
2013-04-29 05:23:00,30.0,28.0,-100.00,ENE,70,0.0,0.0,94,0.00,,,0.00,,2013-04-29 10:23:00,
2013-04-29 05:32:00,29.0,28.0,-100.00,WSW,240,1.0,1.0,94,0.00,,,0.00,,2013-04-29 10:32:00,
2013-04-29 05:42:00,30.0,28.0,-100.00,WSW,240,0.0,1.0,94,0.00,,,0.00,,2013-04-29 10:42:00,
2013-04-29 05:52:00,30.0,28.0,-100.00,West,270,0.0,1.0,95,0.00,,,0.00,,2013-04-29 10:52:00,
2013-04-29 06:02:00,29.0,28.0,-100.00,WNW,295,0.0,1.0,95,0.00,,,0.00,,2013-04-29 11:02:00,
2013-04-29 06:12:00,29.0,28.0,-100.00,ESE,105,2.0,2.0,95,0.00,,,0.00,,2013-04-29 11:12:00,
2013-04-29 06:21:00,29.0,28.0,-100.00,ESE,105,1.0,1.0,96,0.00,,,0.00,,2013-04-29 11:21:00,
2013-04-29 06:32:00,29.0,28.0,-100.00,ENE,75,1.0,2.0,96,0.00,,,0.00,,2013-04-29 11:32:00,
2013-04-29 06:41:00,29.0,28.0,-100.00,North,0,1.0,1.0,96,0.00,,,0.00,,2013-04-29 11:41:00,
2013-04-29 06:52:00,29.0,28.0,-100.00,NW,305,1.0,1.0,96,0.00,,,0.00,,2013-04-29 11:52:00,
2013-04-29 07:01:00,29.0,28.0,-100.00,ESE,115,2.0,2.0,96,0.00,,,0.00,,2013-04-29 12:01:00,
2013-04-29 07:12:00,30.0,28.0,-100.00,ESE,110,2.0,2.0,96,0.00,,,0.00,,2013-04-29 12:12:00,
2013-04-29 07:22:00,31.0,30.0,-100.00,NW,320,1.0,1.0,96,0.00,,,0.00,,2013-04-29 12:22:00,
2013-04-29 07:31:00,32.0,30.0,-100.00,East,80,2.0,4.0,96,0.00,,,0.00,,2013-04-29 12:31:00,
2013-04-29 07:41:00,34.0,34.0,-100.00,NNE,30,0.0,1.0,96,0.00,,,0.00,,2013-04-29 12:41:00,
2013-04-29 07:51:00,36.0,36.0,-100.00,South,185,0.0,1.0,95,0.00,,,0.00,,2013-04-29 12:51:00,
2013-04-29 08:01:00,37.0,36.0,-100.00,SW,220,0.0,1.0,93,0.00,,,0.00,,2013-04-29 13:01:00,
2013-04-29 08:11:00,38.0,36.0,-100.00,SW,215,1.0,2.0,89,0.00,,,0.00,,2013-04-29 13:11:00,
2013-04-29 08:21:00,39.0,36.0,-100.00,SSW,205,1.0,1.0,85,0.00,,,0.00,,2013-04-29 13:21:00,
2013-04-29 08:31:00,40.0,36.0,-100.00,SE,145,1.0,2.0,80,0.00,,,0.00,,2013-04-29 13:31:00,
2013-04-29 08:42:00,42.0,34.0,-100.00,North,0,2.0,5.0,71,0.00,,,0.00,,2013-04-29 13:42:00,
2013-04-29 08:52:00,43.0,30.0,-100.00,North,10,4.0,7.0,61,0.00,,,0.00,,2013-04-29 13:52:00,
2013-04-29 09:01:00,44.0,30.0,-100.00,NNE,30,4.0,6.0,58,0.00,,,0.00,,2013-04-29 14:01:00,
2013-04-29 09:11:00,44.0,30.0,-100.00,NNE,30,3.0,6.0,57,0.00,,,0.00,,2013-04-29 14:11:00,
2013-04-29 09:21:00,45.0,30.0,-100.00,ENE,75,6.0,8.0,54,0.00,,,0.00,,2013-04-29 14:21:00,
2013-04-29 09:32:00,46.0,30.0,-100.00,East,80,6.0,8.0,53,0.00,,,0.00,,2013-04-29 14:32:00,
2013-04-29 09:42:00,47.0,30.0,-100.00,East,95,6.0,7.0,52,0.00,,,0.00,,2013-04-29 14:42:00,
2013-04-29 09:51:00,47.0,30.0,-100.00,East,95,4.0,7.0,51,0.00,,,0.00,,2013-04-29 14:51:00,
2013-04-29 10:01:00,48.0,30.0,-100.00,SE,125,5.0,7.0,50,0.00,,,0.00,,2013-04-29 15:01:00,
2013-04-29 10:12:00,48.0,30.0,-100.00,ESE,115,4.0,8.0,49,0.00,,,0.00,,2013-04-29 15:12:00,
2013-04-29 10:21:00,49.0,30.0,-100.00,East,100,6.0,9.0,46,0.00,,,0.00,,2013-04-29 15:21:00,
2013-04-29 10:33:00,50.0,30.0,-100.00,ESE,110,2.0,7.0,45,0.00,,,0.00,,2013-04-29 15:33:00,
2013-04-29 10:42:00,51.0,30.0,-100.00,East,95,4.0,7.0,43,0.00,,,0.00,,2013-04-29 15:42:00,
2013-04-29 10:52:00,52.0,28.0,-100.00,SE,130,3.0,9.0,41,0.00,,,0.00,,2013-04-29 15:52:00,
2013-04-29 11:02:00,52.0,28.0,-100.00,ESE,120,6.0,8.0,39,0.00,,,0.00,,2013-04-29 16:02:00,
2013-04-29 11:12:00,53.0,28.0,-100.00,ESE,120,2.0,8.0,38,0.00,,,0.00,,2013-04-29 16:12:00,
2013-04-29 11:23:00,53.0,27.0,-100.00,East,95,4.0,7.0,35,0.00,,,0.00,,2013-04-29 16:23:00,
2013-04-29 11:32:00,54.0,27.0,-100.00,East,95,5.0,7.0,34,0.00,,,0.00,,2013-04-29 16:32:00,
2013-04-29 11:42:00,55.0,27.0,-100.00,East,95,6.0,7.0,33,0.00,,,0.00,,2013-04-29 16:42:00,
2013-04-29 11:52:00,55.0,27.0,-100.00,East,95,5.0,7.0,33,0.00,,,0.00,,2013-04-29 16:52:00,
2013-04-29 12:02:00,55.0,27.0,-100.00,East,95,7.0,10.0,32,0.00,,,0.00,,2013-04-29 17:02:00,
2013-04-29 12:12:00,56.0,27.0,-100.00,ENE,70,4.0,11.0,30,0.00,,,0.00,,2013-04-29 17:12:00,
2013-04-29 12:22:00,57.0,25.0,-100.00,ESE,110,4.0,7.0,29,0.00,,,0.00,,2013-04-29 17:22:00,
2013-04-29 12:32:00,58.0,27.0,-100.00,East,90,5.0,7.0,29,0.00,,,0.00,,2013-04-29 17:32:00,
2013-04-29 12:42:00,58.0,27.0,-100.00,ESE,110,7.0,13.0,29,0.00,,,0.00,,2013-04-29 17:42:00,
2013-04-29 12:52:00,59.0,27.0,-100.00,ESE,105,2.0,7.0,28,0.00,,,0.00,,2013-04-29 17:52:00,
2013-04-29 13:01:00,59.0,27.0,-100.00,ESE,110,4.0,10.0,28,0.00,,,0.00,,2013-04-29 18:01:00,
2013-04-29 13:13:00,59.0,25.0,-100.00,ESE,110,7.0,10.0,27,0.00,,,0.00,,2013-04-29 18:13:00,
2013-04-29 13:22:00,60.0,23.0,-100.00,South,185,6.0,7.0,24,0.00,,,0.00,,2013-04-29 18:22:00,
2013-04-29 13:32:00,61.0,25.0,-100.00,SSW,195,6.0,9.0,24,0.00,,,0.00,,2013-04-29 18:32:00,
2013-04-29 13:42:00,61.0,25.0,-100.00,SSE,165,4.0,12.0,24,0.00,,,0.00,,2013-04-29 18:42:00,
2013-04-29 13:51:00,62.0,25.0,-100.00,ESE,105,2.0,9.0,24,0.00,,,0.00,,2013-04-29 18:51:00,
2013-04-29 14:01:00,63.0,25.0,-100.00,SSW,205,2.0,6.0,23,0.00,,,0.00,,2013-04-29 19:01:00,
2013-04-29 14:11:00,63.0,25.0,-100.00,WSW,240,5.0,11.0,22,0.00,,,0.00,,2013-04-29 19:11:00,
2013-04-29 14:21:00,63.0,25.0,-100.00,SSW,200,6.0,9.0,23,0.00,,,0.00,,2013-04-29 19:21:00,
2013-04-29 14:31:00,62.0,23.0,-100.00,SSW,210,6.0,9.0,22,0.00,,,0.00,,2013-04-29 19:31:00,
2013-04-29 14:41:00,63.0,23.0,-100.00,South,185,4.0,7.0,22,0.00,,,0.00,,2013-04-29 19:41:00,
2013-04-29 14:52:00,63.0,23.0,-100.00,SSE,150,4.0,11.0,21,0.00,,,0.00,,2013-04-29 19:52:00,
2013-04-29 15:02:00,64.0,25.0,-100.00,South,185,2.0,10.0,21,0.00,,,0.00,,2013-04-29 20:02:00,
2013-04-29 15:11:00,64.0,25.0,-100.00,SE,130,4.0,6.0,21,0.00,,,0.00,,2013-04-29 20:11:00,
2013-04-29 15:21:00,64.0,25.0,-100.00,SSW,210,6.0,9.0,22,0.00,,,0.00,,2013-04-29 20:21:00,
2013-04-29 15:32:00,65.0,25.0,-100.00,SE,135,6.0,7.0,21,0.00,,,0.00,,2013-04-29 20:32:00,
2013-04-29 15:42:00,65.0,25.0,-100.00,SSW,210,5.0,10.0,21,0.00,,,0.00,,2013-04-29 20:42:00,
2013-04-29 15:52:00,66.0,25.0,-100.00,SE,145,5.0,9.0,21,0.00,,,0.00,,2013-04-29 20:52:00,
2013-04-29 16:01:00,66.0,25.0,-100.00,SE,130,6.0,10.0,20,0.00,,,0.00,,2013-04-29 21:01:00,
2013-04-29 16:11:00,66.0,25.0,-100.00,SSW,205,7.0,10.0,20,0.00,,,0.00,,2013-04-29 21:11:00,
2013-04-29 16:21:00,66.0,25.0,-100.00,SSE,160,5.0,11.0,20,0.00,,,0.00,,2013-04-29 21:21:00,
2013-04-29 16:33:00,67.0,25.0,-100.00,South,170,7.0,12.0,19,0.00,,,0.00,,2013-04-29 21:33:00,
2013-04-29 16:42:00,68.0,25.0,-100.00,South,175,4.0,11.0,19,0.00,,,0.00,,2013-04-29 21:42:00,
2013-04-29 16:53:00,67.0,25.0,-100.00,SSW,195,8.0,11.0,20,0.00,,,0.00,,2013-04-29 21:53:00,
2013-04-29 17:02:00,68.0,25.0,-100.00,South,170,4.0,12.0,20,0.00,,,0.00,,2013-04-29 22:02:00,
2013-04-29 17:13:00,67.0,25.0,-100.00,SSW,195,9.0,12.0,20,0.00,,,0.00,,2013-04-29 22:13:00,
2013-04-29 17:23:00,66.0,25.0,-100.00,South,180,5.0,9.0,20,0.00,,,0.00,,2013-04-29 22:23:00,
2013-04-29 17:32:00,66.0,25.0,-100.00,SSW,195,6.0,9.0,20,0.00,,,0.00,,2013-04-29 22:32:00,
2013-04-29 17:42:00,66.0,25.0,-100.00,South,175,6.0,9.0,20,0.00,,,0.00,,2013-04-29 22:42:00,
2013-04-29 17:52:00,66.0,25.0,-100.00,South,175,6.0,-999.0,20,0.00,,,0.00,,2013-04-29 22:52:00,
2013-04-29 18:02:00,67.0,25.0,-100.00,South,185,6.0,12.0,20,0.00,,,0.00,,2013-04-29 23:02:00,
2013-04-29 18:11:00,66.0,25.0,-100.00,South,170,7.0,12.0,20,0.00,,,0.00,,2013-04-29 23:11:00,
2013-04-29 18:22:00,66.0,25.0,-100.00,South,190,6.0,10.0,21,0.00,,,0.00,,2013-04-29 23:22:00,
2013-04-29 18:32:00,65.0,25.0,-100.00,SSE,165,7.0,12.0,20,0.00,,,0.00,,2013-04-29 23:32:00,
2013-04-29 18:42:00,65.0,25.0,-100.00,SE,135,5.0,10.0,21,0.00,,,0.00,,2013-04-29 23:42:00,
2013-04-29 18:52:00,64.0,25.0,-100.00,SE,135,4.0,9.0,21,0.00,,,0.00,,2013-04-29 23:52:00,
2013-04-29 19:01:00,64.0,25.0,-100.00,SE,125,2.0,7.0,21,0.00,,,0.00,,2013-04-30 00:01:00,
2013-04-29 19:11:00,64.0,25.0,-100.00,SSE,150,2.0,5.0,21,0.00,,,0.00,,2013-04-30 00:11:00,
2013-04-29 19:21:00,62.0,27.0,-100.00,SE,125,4.0,5.0,25,0.00,,,0.00,,2013-04-30 00:21:00,
2013-04-29 19:32:00,61.0,28.0,-100.00,SE,130,2.0,6.0,28,0.00,,,0.00,,2013-04-30 00:32:00,
2013-04-29 19:41:00,61.0,28.0,-100.00,SE,125,4.0,6.0,28,0.00,,,0.00,,2013-04-30 00:41:00,
2013-04-29 19:51:00,60.0,28.0,-100.00,ESE,120,5.0,6.0,30,0.00,,,0.00,,2013-04-30 00:51:00,
2013-04-29 20:02:00,59.0,28.0,-100.00,ESE,115,4.0,7.0,32,0.00,,,0.00,,2013-04-30 01:02:00,
2013-04-29 20:11:00,58.0,28.0,-100.00,ESE,105,4.0,5.0,32,0.00,,,0.00,,2013-04-30 01:11:00,
2013-04-29 20:21:00,58.0,28.0,-100.00,East,95,4.0,4.0,31,0.00,,,0.00,,2013-04-30 01:21:00,
2013-04-29 20:32:00,57.0,27.0,-100.00,East,95,4.0,5.0,31,0.00,,,0.00,,2013-04-30 01:32:00,
2013-04-29 20:41:00,56.0,27.0,-100.00,East,90,4.0,4.0,31,0.00,,,0.00,,2013-04-30 01:41:00,
2013-04-29 20:51:00,56.0,27.0,-100.00,East,85,6.0,7.0,31,0.00,,,0.00,,2013-04-30 01:51:00,
2013-04-29 21:01:00,56.0,27.0,-100.00,East,80,6.0,6.0,30,0.00,,,0.00,,2013-04-30 02:01:00,
2013-04-29 21:11:00,55.0,27.0,-100.00,East,80,6.0,6.0,32,0.00,,,0.00,,2013-04-30 02:11:00,
2013-04-29 21:21:00,56.0,25.0,-100.00,ENE,75,6.0,7.0,30,0.00,,,0.00,,2013-04-30 02:21:00,
2013-04-29 21:31:00,56.0,25.0,-100.00,East,85,6.0,7.0,30,0.00,,,0.00,,2013-04-30 02:31:00,
2013-04-29 21:41:00,56.0,25.0,-100.00,East,80,7.0,8.0,30,0.00,,,0.00,,2013-04-30 02:41:00,
2013-04-29 21:51:00,55.0,25.0,-100.00,East,80,7.0,9.0,30,0.00,,,0.00,,2013-04-30 02:51:00,
2013-04-29 22:01:00,55.0,25.0,-100.00,ENE,75,7.0,9.0,30,0.00,,,0.00,,2013-04-30 03:01:00,
2013-04-29 22:11:00,55.0,25.0,-100.00,East,80,6.0,7.0,30,0.00,,,0.00,,2013-04-30 03:11:00,
2013-04-29 22:21:00,55.0,25.0,-100.00,East,85,6.0,8.0,32,0.00,,,0.00,,2013-04-30 03:21:00,
2013-04-29 22:33:00,54.0,25.0,-100.00,East,90,6.0,7.0,32,0.00,,,0.00,,2013-04-30 03:33:00,
2013-04-29 22:42:00,54.0,27.0,-100.00,East,85,7.0,9.0,34,0.00,,,0.00,,2013-04-30 03:42:00,
2013-04-29 22:52:00,54.0,27.0,-100.00,East,90,7.0,9.0,33,0.00,,,0.00,,2013-04-30 03:52:00,
2013-04-29 23:02:00,55.0,27.0,-100.00,East,80,7.0,10.0,32,0.00,,,0.00,,2013-04-30 04:02:00,
2013-04-29 23:12:00,56.0,27.0,-100.00,ENE,75,7.0,9.0,32,0.00,,,0.00,,2013-04-30 04:12:00,
2013-04-29 23:22:00,56.0,27.0,-100.00,ENE,60,6.0,8.0,30,0.00,,,0.00,,2013-04-30 04:22:00,
2013-04-29 23:32:00,55.0,25.0,-100.00,ENE,60,7.0,9.0,31,0.00,,,0.00,,2013-04-30 04:32:00,
2013-04-29 23:42:00,54.0,25.0,-100.00,ENE,75,8.0,11.0,31,0.00,,,0.00,,2013-04-30 04:42:00,
2013-04-29 23:52:00,54.0,25.0,-100.00,ENE,75,7.0,9.0,32,0.00,,,0.00,,2013-04-30 04:52:00,